Location: Spondin
(51.8528°N, 111.6118°W)
Time: 18:47:32
(UTC+00:00)

Vanguard 2 Rocket - Pass Details

Date: 29 May 2022
Orbit: 553 x 3323 km, 32.9° (Epoch: 02 July)

Event Time Altitude Azimuth Distance (km) Brightness Sun altitude
Rises 17:26:37 0° 191° (SSW) 7,009 11.7 52.3°
Reaches altitude 10° 17:33:40 10° 176° (S) 6,212 11.7 53.1°
Maximum altitude 17:44:53 18° 141° (SE) 5,538 11.9 54.3°
Drops below altitude 10° 17:55:28 10° 107° (ESE) 5,875 11.6 55.3°
Sets 18:01:40 0° 91° (E) 6,514 11.5 55.9°
